When you browse on this site, cookies collect data to enhance your experience and personalize the content and advertising you see.
Visit our Privacy Policy to learn more. By continuing to use the site, you agree to this use of cookies and data.
  • In United Kingdom
  • List of Countries
  • For 7 days
  • Water Temperature
  • Weather Map
  • Weather Widgets
  • user-avatar
    Login

    Hourly Weather Sarbogard

    Today, 16 September, Monday

    Time Temperature Precipitation Wind Pressure Humidity
    00:00 +18°C° 0 mm 1 mps 756 mmHg 64%
    01:00 +17°C° 0 mm 2 mps 755 mmHg 68%
    02:00 +17°C° 0 mm 2 mps 755 mmHg 70%
    03:00 +16°C° 0 mm 2 mps 755 mmHg 72%
    04:00 +16°C° 0 mm 2 mps 755 mmHg 74%
    05:00 +17°C° 0 mm 2 mps 755 mmHg 72%
    06:00 +18°C° 0 mm 2 mps 754 mmHg 71%
    07:00 +19°C° 0 mm 2 mps 754 mmHg 69%
    08:00 +21°C° 0 mm 2 mps 754 mmHg 63%
    09:00 +24°C° 0 mm 2 mps 754 mmHg 56%
    10:00 +27°C° 0 mm 2 mps 754 mmHg 50%
    11:00 +28°C° 0 mm 3 mps 754 mmHg 47%
    12:00 +29°C° 0 mm 3 mps 753 mmHg 44%
    13:00 +30°C° 0 mm 3 mps 753 mmHg 41%
    14:00 +30°C° 0 mm 3 mps 752 mmHg 41%
    15:00 +30°C° 0 mm 3 mps 752 mmHg 42%
    16:00 +30°C° 0 mm 3 mps 751 mmHg 43%
    17:00 +28°C° 0 mm 2 mps 751 mmHg 48%
    18:00 +26°C° 0 mm 2 mps 751 mmHg 53%
    19:00 +24°C° 0 mm 2 mps 751 mmHg 58%
    20:00 +23°C° 0.3 mm 2 mps 751 mmHg 60%
    21:00 +22°C° 0.3 mm 1 mps 751 mmHg 63%
    22:00 +21°C° 0.3 mm 1 mps 751 mmHg 65%
    23:00 +21°C° 0.1 mm 1 mps 751 mmHg 66%

    Tomorrow, 17 September, Tuesday

    Time Temperature Precipitation Wind Pressure Humidity
    00:00 +19°C° 0.1 mm 2 mps 752 mmHg 67%
    01:00 +19°C° 0.1 mm 2 mps 752 mmHg 67%
    02:00 +20°C° 0 mm 1 mps 751 mmHg 66%
    03:00 +20°C° 0 mm 1 mps 751 mmHg 65%
    04:00 +19°C° 0 mm 1 mps 751 mmHg 63%
    05:00 +20°C° 0 mm 1 mps 751 mmHg 62%
    06:00 +20°C° 0 mm 1 mps 751 mmHg 61%
    07:00 +21°C° 0 mm 1 mps 751 mmHg 60%
    08:00 +21°C° 0 mm 2 mps 751 mmHg 60%
    09:00 +21°C° 0 mm 2 mps 751 mmHg 60%
    10:00 +23°C° 0 mm 2 mps 752 mmHg 59%
    11:00 +23°C° 0 mm 2 mps 751 mmHg 58%
    12:00 +24°C° 0 mm 2 mps 751 mmHg 57%
    13:00 +24°C° 0 mm 1 mps 751 mmHg 56%
    14:00 +24°C° 0 mm 2 mps 750 mmHg 55%
    15:00 +25°C° 0 mm 2 mps 750 mmHg 54%
    16:00 +25°C° 0 mm 3 mps 750 mmHg 53%
    17:00 +24°C° 0 mm 3 mps 750 mmHg 56%
    18:00 +21°C° 0 mm 3 mps 750 mmHg 60%
    19:00 +20°C° 0 mm 3 mps 750 mmHg 63%
    20:00 +19°C° 0 mm 3 mps 750 mmHg 65%
    21:00 +19°C° 0 mm 3 mps 750 mmHg 67%
    22:00 +19°C° 0 mm 4 mps 751 mmHg 69%
    23:00 +17°C° 0 mm 5 mps 751 mmHg 65%

    Day after tomorrow, 18 September, Wednesday

    Time Temperature Precipitation Wind Pressure Humidity
    00:00 +16°C° 0 mm 6 mps 752 mmHg 61%
    01:00 +15°C° 0 mm 6 mps 752 mmHg 58%
    02:00 +14°C° 0 mm 6 mps 753 mmHg 58%
    03:00 +13°C° 0 mm 6 mps 753 mmHg 59%
    04:00 +11°C° 0 mm 6 mps 754 mmHg 59%
    05:00 +11°C° 0 mm 6 mps 755 mmHg 56%
    06:00 +10°C° 0 mm 7 mps 756 mmHg 53%
    07:00 +10°C° 0 mm 7 mps 757 mmHg 50%
    08:00 +11°C° 0 mm 6 mps 757 mmHg 45%
    09:00 +14°C° 0 mm 6 mps 758 mmHg 41%
    10:00 +15°C° 0 mm 5 mps 758 mmHg 37%
    11:00 +16°C° 0 mm 5 mps 758 mmHg 34%
    12:00 +18°C° 0 mm 4 mps 758 mmHg 32%
    13:00 +19°C° 0 mm 4 mps 758 mmHg 29%
    14:00 +19°C° 0 mm 4 mps 757 mmHg 29%
    15:00 +19°C° 0 mm 4 mps 757 mmHg 29%
    16:00 +19°C° 0 mm 3 mps 757 mmHg 28%
    17:00 +17°C° 0 mm 3 mps 757 mmHg 34%
    18:00 +15°C° 0 mm 2 mps 757 mmHg 41%
    19:00 +13°C° 0 mm 2 mps 757 mmHg 47%
    20:00 +12°C° 0 mm 2 mps 757 mmHg 51%
    21:00 +10°C° 0 mm 2 mps 758 mmHg 56%
    22:00 +10°C° 0 mm 2 mps 758 mmHg 60%
    23:00 +10°C° 0 mm 2 mps 758 mmHg 58%

    19 September, Thursday

    Time Temperature Precipitation Wind Pressure Humidity
    00:00 +9°C° 0 mm 2 mps 758 mmHg 56%
    01:00 +9°C° 0 mm 2 mps 758 mmHg 54%
    02:00 +9°C° 0 mm 2 mps 758 mmHg 56%
    03:00 +9°C° 0 mm 2 mps 758 mmHg 57%
    04:00 +8°C° 0 mm 2 mps 758 mmHg 59%
    05:00 +9°C° 0 mm 2 mps 758 mmHg 58%
    06:00 +10°C° 0 mm 3 mps 758 mmHg 57%
    07:00 +11°C° 0 mm 3 mps 758 mmHg 57%
    08:00 +12°C° 0 mm 4 mps 758 mmHg 52%
    09:00 +14°C° 0 mm 5 mps 759 mmHg 47%
    10:00 +15°C° 0 mm 5 mps 759 mmHg 42%
    11:00 +16°C° 0 mm 5 mps 759 mmHg 40%
    12:00 +16°C° 0 mm 5 mps 759 mmHg 37%
    13:00 +17°C° 0 mm 5 mps 758 mmHg 35%
    14:00 +17°C° 0 mm 5 mps 758 mmHg 34%
    15:00 +17°C° 0 mm 5 mps 758 mmHg 33%
    16:00 +17°C° 0 mm 5 mps 758 mmHg 32%
    17:00 +15°C° 0 mm 5 mps 758 mmHg 38%
    18:00 +13°C° 0 mm 4 mps 758 mmHg 43%
    19:00 +11°C° 0 mm 4 mps 759 mmHg 49%
    20:00 +11°C° 0 mm 4 mps 759 mmHg 52%
    21:00 +10°C° 0 mm 4 mps 760 mmHg 55%
    22:00 +10°C° 0 mm 4 mps 760 mmHg 58%
    23:00 +8°C° 0 mm 4 mps 760 mmHg 60%

    20 September, Friday

    Time Temperature Precipitation Wind Pressure Humidity
    00:00 +9°C° 0 mm 3 mps 760 mmHg 63%
    01:00 +8°C° 0 mm 3 mps 760 mmHg 65%
    02:00 +8°C° 0 mm 3 mps 760 mmHg 67%
    03:00 +7°C° 0 mm 3 mps 760 mmHg 70%
    04:00 +7°C° 0 mm 2 mps 760 mmHg 72%
    05:00 +8°C° 0 mm 2 mps 761 mmHg 70%
    06:00 +8°C° 0 mm 2 mps 761 mmHg 67%
    07:00 +9°C° 0 mm 2 mps 761 mmHg 64%
    08:00 +12°C° 0 mm 2 mps 761 mmHg 57%
    09:00 +14°C° 0 mm 2 mps 762 mmHg 49%
    10:00 +16°C° 0 mm 2 mps 762 mmHg 41%
    11:00 +17°C° 0 mm 2 mps 762 mmHg 37%
    12:00 +18°C° 0 mm 2 mps 761 mmHg 32%
    13:00 +18°C° 0 mm 2 mps 761 mmHg 28%
    14:00 +19°C° 0 mm 2 mps 760 mmHg 27%
    15:00 +19°C° 0 mm 2 mps 760 mmHg 26%
    16:00 +19°C° 0 mm 2 mps 760 mmHg 25%
    17:00 +17°C° 0 mm 2 mps 760 mmHg 29%
    18:00 +15°C° 0 mm 2 mps 760 mmHg 32%
    19:00 +13°C° 0 mm 2 mps 760 mmHg 36%
    20:00 +12°C° 0 mm 1 mps 760 mmHg 38%
    21:00 +12°C° 0 mm 1 mps 761 mmHg 41%
    22:00 +11°C° 0 mm 1 mps 761 mmHg 43%
    23:00 +10°C° 0 mm 1 mps 761 mmHg 45%

    21 September, Saturday

    Time Temperature Precipitation Wind Pressure Humidity
    00:00 +10°C° 0 mm 1 mps 761 mmHg 47%
    01:00 +8°C° 0 mm 0 mps 761 mmHg 49%
    02:00 +8°C° 0 mm 0 mps 761 mmHg 50%
    03:00 +9°C° 0 mm 1 mps 761 mmHg 52%
    04:00 +8°C° 0 mm 1 mps 761 mmHg 53%
    05:00 +9°C° 0 mm 1 mps 761 mmHg 51%
    06:00 +10°C° 0 mm 1 mps 761 mmHg 50%
    07:00 +11°C° 0 mm 1 mps 761 mmHg 49%
    08:00 +13°C° 0 mm 1 mps 761 mmHg 43%
    09:00 +15°C° 0 mm 1 mps 761 mmHg 38%
    10:00 +18°C° 0 mm 1 mps 761 mmHg 33%
    11:00 +20°C° 0 mm 1 mps 761 mmHg 30%
    12:00 +21°C° 0 mm 1 mps 760 mmHg 28%
    13:00 +22°C° 0 mm 1 mps 760 mmHg 26%
    14:00 +22°C° 0 mm 1 mps 760 mmHg 26%
    15:00 +21°C° 0 mm 1 mps 759 mmHg 26%
    16:00 +21°C° 0 mm 1 mps 759 mmHg 26%
    17:00 +20°C° 0 mm 1 mps 759 mmHg 29%
    18:00 +18°C° 0 mm 1 mps 759 mmHg 33%
    19:00 +15°C° 0 mm 1 mps 759 mmHg 37%
    20:00 +14°C° 0 mm 1 mps 759 mmHg 38%
    21:00 +14°C° 0 mm 1 mps 759 mmHg 40%
    22:00 +13°C° 0 mm 1 mps 759 mmHg 41%
    23:00 +12°C° 0 mm 1 mps 759 mmHg 42%
    Show more